DELTA 1 DEB, 10709

Orbit data source: Space-Track

DELTA 1 DEB, 10709 is space debris in SSO originally from a launch on Thu, 29 Jul 1976 UTC launched from the Air Force Western Test Range (AFWTR). Debris objects in space refer to the collection of defunct objects orbiting the Earth. Examples of debris include non-operational satellites, rocket bodies, and fragments generated from explosions, collisions, or faulty payload assembly.

Loading next visibility...
Identifier
10709, 1976-077AE
Orbit
SSO
Country
Flag of USUS
Related business
Manufacturer
Unknown
Mission
Spacecraft
Bus & Motor
Unknown
Mass
Unknown
Launch date (UTC)
1976-07-29 (49 years ago)
Launch vehicle
Unknown
Launch site
Air Force Western Test Range (AFWTR)
Object type
Payload
Rocket body
Debris
Shape & HBR
Unknown shape, 0.1 m
Radar Cross Section
Medium (>0.1 m² and <1 m²)

Expand to show TLE details & history
Last TLE update: 18 hours ago

TLE from 18 hours ago
0 DELTA 1 DEB
1 10709U 76077AE  25340.95914640  .00000427  00000-0  32439-2 0  9992
2 10709 101.9141  46.0200 0030690 174.6494   0.8038 12.46552666242078
Epoch: 2025-12-06T23:01Z
TLE epoch observation values (Epoch: 2025-12-06T23:01:10.248Z)
Latitude
4.36386°
Longitude
165.66591°
Altitude
1,456.935 km
Speed
7.145 km/s
True Right ascension
15h 07m 45s
True Declination
4° 20' 25"
Sunlit
Object was in daylight at epoch
Visualization orbit readout
Latitude
Unknown
Longitude
Unknown
Altitude
Unknown
Speed
Unknown
Apparent Right ascension
Unknown
Apparent Declination
Unknown
Sunlit
N/A
Visualization observer readout
Local Sidereal Time
15:16:54
Azimuth
Unknown
Elevation
Unknown
Doppler factor
Unknown
Orbital elements
Apogee altitude
1,500.614 km
Perigee altitude
1,452.403 km
Semi-major axis
7,854.645 km
Eccentricity
0.00307
Inclination
101.9141°
RAAN
46.02°
Arg. of periapsis
174.6494°
True anomaly
0.80875°
Mean anomaly
0.8038°
Eccentric anomaly
0.80627°
Mean motion
3.11784 °/min
Orbital period
115.46 mins
BSTAR
0.0032439
Loading maneuver chart data...
Computing Atmospheric mass density...
Loading historical data...
Loading historical data...
Loading historical data...
Loading historical data...
Loading historical data...
Loading historical data...
Loading historical data...

Documentation

Showing up to 5 results
|